Time,TemperatureF,DewpointF,PressureIn,WindDirection,WindDirectionDegrees,WindSpeedMPH,WindSpeedGustMPH,Humidity,HourlyPrecipIn,Conditions,Clouds,dailyrainin,SolarRadiationWatts/m^2,SoftwareType,DateUTC
2013-02-23 00:00:00,21.0,19.0,-100.00,WSW,249,6.0,12.0,91,-99.99,,,0.02,-0.200000,,2013-02-23 08:00:00,
2013-02-23 00:52:00,21.0,19.0,-100.00,WSW,249,6.0,12.0,91,-99.99,,,0.02,-0.200000,,2013-02-23 08:52:00,
2013-02-23 01:00:00,21.0,19.0,-100.00,SW,220,6.0,12.0,91,-99.99,,,0.02,-2.900000,,2013-02-23 09:00:00,
2013-02-23 01:52:00,21.0,19.0,-100.00,SW,220,6.0,12.0,91,-99.99,,,0.02,-2.900000,,2013-02-23 09:52:00,
2013-02-23 02:00:00,22.0,19.0,-100.00,SE,145,6.0,9.0,91,-99.99,,,0.02,-2.900000,,2013-02-23 10:00:00,
2013-02-23 02:52:00,22.0,19.0,-100.00,SE,145,6.0,9.0,91,-99.99,,,0.02,-2.900000,,2013-02-23 10:52:00,
2013-02-23 03:00:00,22.0,20.0,-100.00,WSW,250,7.0,12.0,91,-99.99,,,0.02,-2.900000,,2013-02-23 11:00:00,
2013-02-23 03:52:00,22.0,20.0,-100.00,WSW,250,7.0,12.0,91,-99.99,,,0.02,-2.900000,,2013-02-23 11:52:00,
2013-02-23 04:00:00,22.0,19.0,-100.00,SW,228,7.0,12.0,87,-99.99,,,0.02,-2.900000,,2013-02-23 12:00:00,
2013-02-23 04:52:00,22.0,19.0,-100.00,SW,228,7.0,12.0,87,-99.99,,,0.02,-2.900000,,2013-02-23 12:52:00,
2013-02-23 05:00:00,22.0,18.0,-100.00,SW,234,7.0,11.0,84,-99.99,,,0.02,-2.900000,,2013-02-23 13:00:00,
2013-02-23 05:52:00,22.0,18.0,-100.00,SW,234,7.0,11.0,84,-99.99,,,0.02,-2.900000,,2013-02-23 13:52:00,
2013-02-23 06:00:00,23.0,20.0,-100.00,WSW,254,7.0,11.0,85,-99.99,,,0.02,-4.200000,,2013-02-23 14:00:00,
2013-02-23 06:52:00,23.0,20.0,-100.00,WSW,254,7.0,11.0,85,-99.99,,,0.02,-4.200000,,2013-02-23 14:52:00,
2013-02-23 07:00:00,23.0,20.0,-100.00,SW,230,7.0,12.0,86,-99.99,,,0.02,-74.500000,,2013-02-23 15:00:00,
2013-02-23 07:52:00,23.0,20.0,-100.00,SW,230,7.0,12.0,86,-99.99,,,0.02,-74.500000,,2013-02-23 15:52:00,
2013-02-23 08:00:00,25.0,21.0,-100.00,WNW,299,7.0,11.0,84,-99.99,,,0.02,107.500000,,2013-02-23 16:00:00,
2013-02-23 08:52:00,25.0,21.0,-100.00,WNW,299,7.0,11.0,84,-99.99,,,0.02,107.500000,,2013-02-23 16:52:00,
2013-02-23 09:00:00,27.0,21.0,-100.00,SW,221,8.0,15.0,78,-99.99,,,0.02,107.500000,,2013-02-23 17:00:00,
2013-02-23 09:52:00,27.0,21.0,-100.00,SW,221,8.0,15.0,78,-99.99,,,0.02,107.500000,,2013-02-23 17:52:00,
2013-02-23 10:00:00,28.0,22.0,-100.00,NW,310,8.0,13.0,76,-99.99,,,0.01,98.199997,,2013-02-23 18:00:00,
2013-02-23 10:52:00,28.0,22.0,-100.00,NW,310,8.0,13.0,76,-99.99,,,0.01,98.199997,,2013-02-23 18:52:00,
2013-02-23 11:00:00,29.0,22.0,-100.00,SW,234,8.0,12.0,73,-99.99,,,0.01,248.100006,,2013-02-23 19:00:00,
2013-02-23 12:00:00,31.0,22.0,-100.00,SW,227,7.0,12.0,70,-99.99,,,0.01,484.600006,,2013-02-23 20:00:00,
2013-02-23 12:52:00,31.0,22.0,-100.00,SW,227,7.0,12.0,70,-99.99,,,0.01,484.600006,,2013-02-23 20:52:00,
2013-02-23 13:00:00,31.0,22.0,-100.00,WSW,247,7.0,11.0,69,-99.99,,,0.02,604.200012,,2013-02-23 21:00:00,
2013-02-23 13:52:00,31.0,22.0,-100.00,WSW,247,7.0,11.0,69,-99.99,,,0.02,604.200012,,2013-02-23 21:52:00,
2013-02-23 14:00:00,31.0,22.0,-100.00,West,277,6.0,10.0,69,-99.99,,,0.01,529.500000,,2013-02-23 22:00:00,
2013-02-23 14:52:00,31.0,22.0,-100.00,West,277,6.0,10.0,69,-99.99,,,0.01,529.500000,,2013-02-23 22:52:00,
2013-02-23 15:00:00,31.0,21.0,-100.00,West,277,6.0,11.0,66,-99.99,,,0.01,427.500000,,2013-02-23 23:00:00,
2013-02-23 15:52:00,31.0,21.0,-100.00,West,277,6.0,11.0,66,-99.99,,,0.01,427.500000,,2013-02-23 23:52:00,
2013-02-23 16:00:00,28.0,17.0,-100.00,WNW,289,7.0,13.0,64,-99.99,,,0.01,231.899994,,2013-02-24 00:00:00,
2013-02-23 16:52:00,28.0,17.0,-100.00,WNW,289,7.0,13.0,64,-99.99,,,0.01,231.899994,,2013-02-24 00:52:00,
2013-02-23 17:00:00,27.0,-99.9,-100.00,North,-999,-999.0,-999.0,-999,-99.99,,,0.00,-60.400002,,2013-02-24 01:00:00,
2013-02-23 17:52:00,27.0,-99.9,-100.00,North,-999,-999.0,-999.0,-999,-99.99,,,0.00,-60.400002,,2013-02-24 01:52:00,
2013-02-23 20:00:00,25.0,16.0,-100.00,NW,313,2.0,6.0,68,-99.99,,,0.00,-0.200000,,2013-02-24 04:00:00,
2013-02-23 20:52:00,25.0,16.0,-100.00,NW,313,2.0,6.0,68,-99.99,,,0.00,-0.200000,,2013-02-24 04:52:00,
2013-02-23 21:00:00,25.0,17.0,-100.00,WSW,257,2.0,6.0,73,-99.99,,,0.00,-0.200000,,2013-02-24 05:00:00,
2013-02-23 21:52:00,25.0,17.0,-100.00,WSW,257,2.0,6.0,73,-99.99,,,0.00,-0.200000,,2013-02-24 05:52:00,
2013-02-23 22:00:00,24.0,18.0,-100.00,WSW,244,1.0,3.0,77,-99.99,,,0.00,-0.200000,,2013-02-24 06:00:00,
2013-02-23 22:52:00,24.0,18.0,-100.00,WSW,244,1.0,3.0,77,-99.99,,,0.00,-0.200000,,2013-02-24 06:52:00,
2013-02-23 23:00:00,22.0,18.0,-100.00,North,-999,-999.0,-999.0,85,-99.99,,,0.00,-45.900002,,2013-02-24 07:00:00,
2013-02-23 23:52:00,22.0,18.0,-100.00,North,-999,-999.0,-999.0,85,-99.99,,,0.00,-45.900002,,2013-02-24 07:52:00,